User: anonymous
Location: Hickory_Viewmont
(35.7830°N, 81.3170°W)
Time: 14:11:39
(UTC-04:00)
Language:

Okean-O - Orbit

View from above orbital plane
View from above orbital plane
View from above satellite
View from above satellite

Ground track
Ground track

The orbit data is extracted from the following two-line orbital elements,

1 25860U 99039A   14107.94149175  .00001191  00000-0  18378-3 0  2269
2 25860 098.0368 072.1892 0001026 120.2524 288.6359 14.75181785793277
Epoch (UTC): 17 April 2014 22:35:44
Eccentricity: 0.0001026
inclination: 98.0368°
perigee height: 644 km
apogee height: 645 km
right ascension of ascending node: 72.1892°
argument of perigee: 120.2524°
revolutions per day: 14.75181785
mean anomaly at epoch: 288.6359°
orbit number at epoch: 79327

The dashed part of the orbit path shows where the satellite is in the earth's shadow,  

DLR